Simultaneous Nadir Overpasses (SNOs) Predictions

Prediction of SNOs between GOES-16 and METOP-A Satellite Orbit:

Table of predicted SNOs for the next 14.0 days since TLE Epoch: 1/2/2021
Index Date Time (GOES-16) GOES-16 Lat,Lon METOP-A Lat,Lon Distance(km) Time Diff (sec)
1 01/03/2021 01:07:34 -0.02, -75.17 0.93, -70.87 490.70 80
2 01/04/2021 13:23:46 0.02, -75.20 0.06, -75.47 30.26 80
3 01/07/2021 01:22:07 -0.02, -75.16 -0.01, -75.12 4.64 80
4 01/09/2021 13:23:00 0.00, -75.20 -0.10, -74.75 50.77 80
5 01/11/2021 01:42:00 0.00, -75.17 -0.95, -79.38 480.67 80
6 01/12/2021 01:18:41 0.00, -75.17 0.15, -74.40 86.67 80
7 01/13/2021 13:37:33 0.00, -75.21 0.84, -79.01 433.08 80
8 01/14/2021 13:19:33 0.01, -75.21 -0.26, -74.03 134.87 80
9 01/16/2021 01:38:34 -0.01, -75.20 -0.78, -78.66 394.77 80
